Hourly Weather Nizhnie Morozy

Today, 22 September, Tuesday

Time Temperature Precipitation Wind Pressure Humidity
00:00 +11°C° 0 mm 3 mps 750 mmHg 93%
01:00 +11°C° 0 mm 3 mps 750 mmHg 93%
02:00 +10°C° 0 mm 3 mps 750 mmHg 93%
03:00 +10°C° 0 mm 3 mps 749 mmHg 92%
04:00 +10°C° 0 mm 3 mps 749 mmHg 91%
05:00 +9°C° 0 mm 3 mps 749 mmHg 91%
06:00 +10°C° 0 mm 4 mps 749 mmHg 85%
07:00 +11°C° 0 mm 4 mps 749 mmHg 79%
08:00 +12°C° 0 mm 4 mps 749 mmHg 72%
09:00 +14°C° 0 mm 4 mps 749 mmHg 68%
10:00 +16°C° 0 mm 5 mps 749 mmHg 63%
11:00 +19°C° 0 mm 5 mps 749 mmHg 59%
12:00 +19°C° 0 mm 5 mps 749 mmHg 58%
13:00 +20°C° 0 mm 5 mps 749 mmHg 57%
14:00 +21°C° 0 mm 5 mps 749 mmHg 56%
15:00 +20°C° 0 mm 4 mps 748 mmHg 61%
16:00 +19°C° 0 mm 3 mps 748 mmHg 66%
17:00 +19°C° 0 mm 3 mps 748 mmHg 71%
18:00 +17°C° 0 mm 3 mps 748 mmHg 77%
19:00 +15°C° 0 mm 2 mps 748 mmHg 83%
20:00 +14°C° 0 mm 2 mps 748 mmHg 89%
21:00 +13°C° 0 mm 2 mps 748 mmHg 90%
22:00 +13°C° 0 mm 2 mps 748 mmHg 91%
23:00 +12°C° 0 mm 2 mps 748 mmHg 92%

Tomorrow, 23 September, Wednesday

Time Temperature Precipitation Wind Pressure Humidity
00:00 +12°C° 0 mm 2 mps 748 mmHg 92%
01:00 +12°C° 0 mm 2 mps 748 mmHg 92%
02:00 +12°C° 0 mm 2 mps 748 mmHg 92%
03:00 +12°C° 0 mm 2 mps 748 mmHg 92%
04:00 +10°C° 0 mm 2 mps 748 mmHg 93%
05:00 +10°C° 0 mm 2 mps 748 mmHg 93%
06:00 +12°C° 0 mm 2 mps 748 mmHg 89%
07:00 +13°C° 0 mm 2 mps 748 mmHg 85%
08:00 +15°C° 0 mm 2 mps 748 mmHg 82%
09:00 +17°C° 0 mm 3 mps 748 mmHg 75%
10:00 +18°C° 0 mm 3 mps 747 mmHg 69%
11:00 +20°C° 0 mm 3 mps 747 mmHg 63%
12:00 +21°C° 0 mm 3 mps 747 mmHg 61%
13:00 +22°C° 0 mm 3 mps 747 mmHg 58%
14:00 +23°C° 0 mm 4 mps 747 mmHg 56%
15:00 +22°C° 0 mm 3 mps 747 mmHg 61%
16:00 +21°C° 0 mm 3 mps 746 mmHg 65%
17:00 +20°C° 0 mm 3 mps 746 mmHg 70%
18:00 +18°C° 0 mm 3 mps 746 mmHg 71%
19:00 +17°C° 0 mm 3 mps 746 mmHg 73%
20:00 +14°C° 0 mm 3 mps 746 mmHg 75%
21:00 +14°C° 0 mm 3 mps 746 mmHg 74%
22:00 +13°C° 0 mm 3 mps 746 mmHg 73%
23:00 +12°C° 0 mm 3 mps 746 mmHg 73%

Day after tomorrow, 24 September, Thursday

Time Temperature Precipitation Wind Pressure Humidity
00:00 +12°C° 0 mm 3 mps 746 mmHg 72%
01:00 +12°C° 0 mm 3 mps 747 mmHg 72%
02:00 +12°C° 0 mm 2 mps 747 mmHg 72%
03:00 +11°C° 0 mm 3 mps 747 mmHg 72%
04:00 +10°C° 0 mm 3 mps 746 mmHg 72%
05:00 +10°C° 0 mm 3 mps 746 mmHg 72%
06:00 +11°C° 0 mm 3 mps 746 mmHg 69%
07:00 +12°C° 0 mm 3 mps 746 mmHg 66%
08:00 +12°C° 0 mm 4 mps 746 mmHg 64%
09:00 +14°C° 0 mm 4 mps 747 mmHg 60%
10:00 +17°C° 0 mm 4 mps 747 mmHg 56%
11:00 +19°C° 0 mm 4 mps 747 mmHg 52%
12:00 +20°C° 0 mm 4 mps 747 mmHg 50%
13:00 +21°C° 0 mm 4 mps 747 mmHg 48%
14:00 +22°C° 0 mm 4 mps 747 mmHg 46%
15:00 +21°C° 0 mm 4 mps 747 mmHg 51%
16:00 +20°C° 0 mm 3 mps 746 mmHg 56%
17:00 +18°C° 0 mm 3 mps 746 mmHg 61%
18:00 +17°C° 0 mm 3 mps 746 mmHg 65%
19:00 +16°C° 0 mm 3 mps 746 mmHg 68%
20:00 +14°C° 0 mm 3 mps 747 mmHg 72%
21:00 +13°C° 0 mm 3 mps 747 mmHg 73%
22:00 +13°C° 0 mm 3 mps 747 mmHg 73%
23:00 +12°C° 0 mm 3 mps 747 mmHg 74%

25 September, Friday

Time Temperature Precipitation Wind Pressure Humidity
00:00 +12°C° 0 mm 3 mps 747 mmHg 75%
01:00 +11°C° 0 mm 3 mps 747 mmHg 75%
02:00 +11°C° 0 mm 3 mps 747 mmHg 76%
03:00 +11°C° 0 mm 3 mps 746 mmHg 76%
04:00 +10°C° 0 mm 3 mps 746 mmHg 76%
05:00 +10°C° 0 mm 3 mps 746 mmHg 76%
06:00 +11°C° 0 mm 3 mps 746 mmHg 73%
07:00 +12°C° 0 mm 3 mps 746 mmHg 69%
08:00 +13°C° 0 mm 4 mps 746 mmHg 66%
09:00 +15°C° 0 mm 4 mps 746 mmHg 62%
10:00 +18°C° 0 mm 4 mps 746 mmHg 58%
11:00 +19°C° 0 mm 4 mps 746 mmHg 54%
12:00 +20°C° 0 mm 4 mps 746 mmHg 53%
13:00 +21°C° 0 mm 4 mps 745 mmHg 52%
14:00 +22°C° 0 mm 5 mps 745 mmHg 51%
15:00 +21°C° 0 mm 4 mps 745 mmHg 57%
16:00 +20°C° 0 mm 4 mps 745 mmHg 62%
17:00 +19°C° 0 mm 4 mps 745 mmHg 67%
18:00 +18°C° 0 mm 4 mps 745 mmHg 69%
19:00 +17°C° 0 mm 4 mps 745 mmHg 72%
20:00 +17°C° 0 mm 4 mps 745 mmHg 75%
21:00 +17°C° 0 mm 4 mps 745 mmHg 73%
22:00 +15°C° 0 mm 4 mps 744 mmHg 72%
23:00 +15°C° 0 mm 5 mps 744 mmHg 70%

26 September, Saturday

Time Temperature Precipitation Wind Pressure Humidity
00:00 +15°C° 0 mm 5 mps 744 mmHg 70%
01:00 +14°C° 0 mm 4 mps 744 mmHg 69%
02:00 +14°C° 0 mm 4 mps 744 mmHg 69%
03:00 +13°C° 0 mm 4 mps 744 mmHg 69%
04:00 +13°C° 0 mm 4 mps 744 mmHg 69%
05:00 +12°C° 0 mm 4 mps 744 mmHg 69%
06:00 +13°C° 0 mm 5 mps 744 mmHg 68%
07:00 +13°C° 0 mm 5 mps 744 mmHg 67%
08:00 +14°C° 0 mm 5 mps 744 mmHg 67%
09:00 +16°C° 0 mm 6 mps 744 mmHg 63%
10:00 +17°C° 0 mm 6 mps 744 mmHg 59%
11:00 +20°C° 0 mm 6 mps 744 mmHg 55%
12:00 +21°C° 0 mm 6 mps 744 mmHg 53%
13:00 +22°C° 0 mm 6 mps 744 mmHg 51%
14:00 +23°C° 0 mm 7 mps 744 mmHg 50%
15:00 +22°C° 0 mm 6 mps 744 mmHg 54%
16:00 +21°C° 0 mm 6 mps 744 mmHg 58%
17:00 +20°C° 0 mm 5 mps 744 mmHg 63%
18:00 +19°C° 0 mm 5 mps 744 mmHg 65%
19:00 +17°C° 0 mm 5 mps 745 mmHg 67%
20:00 +16°C° 0 mm 5 mps 745 mmHg 70%
21:00 +16°C° 0 mm 5 mps 745 mmHg 70%
22:00 +15°C° 0 mm 4 mps 745 mmHg 70%
23:00 +15°C° 0 mm 4 mps 745 mmHg 71%

27 September, Sunday

Time Temperature Precipitation Wind Pressure Humidity
00:00 +14°C° 0 mm 4 mps 745 mmHg 70%
01:00 +14°C° 0 mm 5 mps 745 mmHg 68%
02:00 +14°C° 0 mm 5 mps 745 mmHg 67%
03:00 +14°C° 0 mm 5 mps 745 mmHg 66%
04:00 +14°C° 0 mm 5 mps 745 mmHg 65%
05:00 +14°C° 0 mm 5 mps 745 mmHg 63%
06:00 +14°C° 0 mm 5 mps 745 mmHg 62%
07:00 +15°C° 0 mm 5 mps 745 mmHg 62%
08:00 +15°C° 0 mm 6 mps 745 mmHg 61%
09:00 +17°C° 0 mm 6 mps 745 mmHg 57%
10:00 +18°C° 0 mm 7 mps 746 mmHg 53%
11:00 +21°C° 0 mm 7 mps 746 mmHg 50%
12:00 +21°C° 0 mm 7 mps 745 mmHg 49%
13:00 +21°C° 0 mm 7 mps 745 mmHg 48%
14:00 +22°C° 0 mm 7 mps 745 mmHg 47%
15:00 +21°C° 0 mm 7 mps 745 mmHg 51%
16:00 +19°C° 0 mm 6 mps 745 mmHg 54%
17:00 +17°C° 0 mm 6 mps 745 mmHg 58%
18:00 +17°C° 0 mm 6 mps 745 mmHg 57%
19:00 +16°C° 0 mm 6 mps 745 mmHg 57%
20:00 +16°C° 0 mm 6 mps 744 mmHg 56%
21:00 +15°C° 0.1 mm 6 mps 744 mmHg 62%
22:00 +14°C° 0.1 mm 5 mps 744 mmHg 69%
23:00 +13°C° 0.1 mm 5 mps 744 mmHg 76%
Show more